This demonstration page uses our WeatherBlox Daily Observations layout. Learn more.

Left ArrowRight Arrow

Hourly Observations for April 27, 2022

Temp ( °F °C ) Dew Point ( °F °C ) Humidity (%) Winds ( mph kmh ) Pressure ( in mb ) Visibility ( mi km ) Precip ( " mm )
12:53 am 00:53 Clear 53 11.7 39 3.9 59 59 Calm 29.89 1012 10 16 0.00 0.00
1:53 am 01:53 Partly Cloudy 59 15 34 1.1 39 39 NW 8 13 29.89 1012 10 16 0.00 0.00
2:53 am 02:53 Partly Cloudy 59 15 34 1.1 39 39 NW 10 17 29.89 1012 10 16 0.00 0.00
3:53 am 03:53 Clear 57 13.9 34 1.1 42 42 NW 7 11 29.90 1013 10 16 0.00 0.00
4:53 am 04:53 Clear 55 12.8 34 1.1 45 45 WNW 7 11 29.90 1013 10 16 0.00 0.00
5:53 am 05:53 Clear 54 12.2 34 1.1 47 47 WNW 7 11 29.91 1013 10 16 0.00 0.00
6:53 am 06:53 Sunny 54 12.2 34 1.1 47 47 NNW 3 6 29.93 1014 10 16 0.00 0.00
7:53 am 07:53 Sunny 52 11.1 41 5 66 66 Calm 29.95 1014 10 16 0.00 0.00
8:53 am 08:53 Sunny 58 14.4 41 5 53 53 Calm 29.96 1015 10 16 0.00 0.00
9:53 am 09:53 Sunny 63 17.2 37 2.8 38 38 VRB 6 9 29.95 1014 10 16 0.00 0.00
10:53 am 10:53 Sunny 66 18.9 35 1.7 32 32 N 5 7 29.95 1014 10 16 0.00 0.00
11:53 am 11:53 Sunny 68 20 36 2.2 31 31 Calm 29.94 1014 10 16 0.00 0.00
12:53 pm 12:53 Sunny 71 21.7 35 1.7 27 27 VRB 3 6 29.92 1013 10 16 0.00 0.00
1:53 pm 13:53 Sunny 72 22.2 33 0.6 24 24 VRB 3 6 29.91 1013 10 16 0.00 0.00
2:53 pm 14:53 Sunny 73 22.8 29 -1.7 19 19 E 9 15 29.89 1012 10 16 0.00 0.00
3:53 pm 15:53 Sunny 75 23.9 29 -1.7 18 18 WNW 6 9 29.87 1011 10 16 0.00 0.00
4:53 pm 16:53 Sunny 75 23.9 29 -1.7 18 18 VRB 6 9 29.85 1011 10 16 0.00 0.00
5:53 pm 17:53 Sunny 75 23.9 31 -0.6 20 20 SSE 12 19 29.84 1010 10 16 0.00 0.00
6:53 pm 18:53 Sunny 73 22.8 28 -2.2 19 19 SSE 8 13 29.83 1010 10 16 0.00 0.00
7:53 pm 19:53 Sunny 68 20 34 1.1 28 28 S 7 11 29.83 1010 10 16 0.00 0.00
8:53 pm 20:53 Mostly Cloudy 67 19.4 34 1.1 30 30 SSW 5 7 29.83 1010 10 16 0.00 0.00
9:53 pm 21:53 Cloudy 65 18.3 35 1.7 33 33 NNW 3 6 29.84 1010 10 16 0.00 0.00
10:53 pm 22:53 Cloudy 66 18.9 39 3.9 37 37 Calm 29.83 1010 10 16 0.00 0.00
11:53 pm 23:53 Cloudy 62 16.7 42 5.6 48 48 ESE 5 7 29.82 1010 10 16 0.00 0.00

Powered by AerisWeather